Poteau, OK

3:55 PM CST on February 08, 2016 (GMT -0600)
Kerr

Weather History for KRKR - February, 2013

Change the Weather History Date:

Thursday, February 28, 2013

  Actual Average (KFSM) Record (KFSM)
Temperature  
Mean Temperature 42 °F 48 °F  
Max Temperature 51 °F 60 °F 80 °F (1932)
Min Temperature 33 °F 37 °F 7 °F (1890)
Degree Days  
Heating Degree Days 23 17  
Month to date heating degree days 582  
Since 1 July heating degree days 2673  
Moisture  
Dew Point 32 °F    
Average Humidity 71    
Maximum Humidity 87    
Minimum Humidity 47    
Precipitation  
Precipitation 0.00 in 0.10 in 1.35 in (1981)
Month to date precipitation 2.76  
Year to date precipitation 5.57  
Sea Level Pressure  
Sea Level Pressure 30.19 in    
Wind  
Wind Speed 8 mph (NW)    
Max Wind Speed 16 mph    
Max Gust Speed 21 mph    
Visibility 10 miles    
Events      
T = Trace of Precipitation, MM = Missing Value Source: NWS Daily Summary

Daily Weather History Graph

Daily Weather History Graph

Search for Another Location

Airport or City:

Trip Planner

Search our weather history database for the weather conditions in past years. The results will help you decide how hot, cold, wet, or windy it might be!

Date:

Astronomy

Feb. 28, 2013 Rise Set
Actual Time 6:48 AM CST 6:13 PM CST
Civil Twilight 6:23 AM CST 6:38 PM CST
Nautical Twilight 5:54 AM CST 7:08 PM CST
Astronomical Twilight 5:24 AM CST 7:37 PM CST
Moon 9:31 PM CST (2/28) 8:07 AM CST (2/28)
Length of Visible Light 12h 15m
Length of Day
11h 24m
Waning Gibbous, 90% of the Moon is Illuminated
Feb 28
Waning Gibbous
Mar 4
Last Quarter
Mar 11
New
Mar 19
First Quarter
Mar 27
Full

Hourly Weather History & Observations

Time (CST) Temp. Windchill Dew Point Humidity Pressure Visibility Wind Dir Wind Speed Gust Speed Precip Events Conditions
12:15 AM 37.4 °F 31.4 °F 30.2 °F 75% 30.15 in 10.0 mi WNW 8.1 mph - N/A   Clear
1:15 AM 37.4 °F 29.8 °F 30.2 °F 75% 30.15 in 10.0 mi NW 11.5 mph - N/A   Clear
1:35 AM 37.4 °F 30.8 °F 30.2 °F 75% 30.16 in 10.0 mi WNW 9.2 mph 18.4 mph N/A   Clear
1:55 AM 37.4 °F 30.3 °F 30.2 °F 75% 30.16 in 10.0 mi WNW 10.4 mph - N/A   Clear
2:15 AM 35.6 °F 30.7 °F 30.2 °F 81% 30.16 in 10.0 mi West 5.8 mph - N/A   Clear
2:35 AM 35.6 °F 30.7 °F 30.2 °F 81% 30.16 in 10.0 mi West 5.8 mph - N/A   Clear
2:55 AM 35.6 °F 30.7 °F 30.2 °F 81% 30.17 in 10.0 mi West 5.8 mph - N/A   Clear
3:15 AM 35.6 °F 30.7 °F 30.2 °F 81% 30.17 in 10.0 mi West 5.8 mph - N/A   Clear
3:35 AM 35.6 °F 31.7 °F 32.0 °F 87% 30.17 in 10.0 mi WNW 4.6 mph - N/A   Clear
3:55 AM 35.6 °F 30.7 °F 30.2 °F 81% 30.17 in 10.0 mi NW 5.8 mph - N/A   Clear
4:15 AM 35.6 °F 29.9 °F 30.2 °F 81% 30.16 in 10.0 mi NW 6.9 mph - N/A   Clear
4:35 AM 35.6 °F 30.7 °F 30.2 °F 81% 30.17 in 10.0 mi WNW 5.8 mph - N/A   Clear
4:55 AM 35.6 °F 30.7 °F 30.2 °F 81% 30.17 in 10.0 mi NW 5.8 mph - N/A   Clear
5:15 AM 35.6 °F 32.8 °F 30.2 °F 81% 30.18 in 10.0 mi SW 3.5 mph - N/A   Clear
5:35 AM 35.6 °F 32.8 °F 30.2 °F 81% 30.18 in 10.0 mi WNW 3.5 mph - N/A   Clear
5:55 AM 33.8 °F - 30.2 °F 87% 30.19 in 10.0 mi Calm Calm - N/A   Clear
6:15 AM 33.8 °F - 30.2 °F 87% 30.19 in 10.0 mi Calm Calm - N/A   Clear
6:35 AM 33.8 °F 28.6 °F 30.2 °F 87% 30.19 in 10.0 mi NW 5.8 mph - N/A   Clear
6:55 AM 35.6 °F 28.6 °F 30.2 °F 81% 30.20 in 10.0 mi NW 9.2 mph - N/A   Clear
7:15 AM 35.6 °F 30.7 °F 32.0 °F 87% 30.20 in 10.0 mi NW 5.8 mph - N/A   Clear
7:35 AM 35.6 °F 29.9 °F 30.2 °F 81% 30.21 in 10.0 mi NW 6.9 mph - N/A   Clear
7:55 AM 35.6 °F 29.9 °F 30.2 °F 81% 30.21 in 10.0 mi NW 6.9 mph - N/A   Clear
8:15 AM 37.4 °F 31.4 °F 32.0 °F 81% 30.21 in 10.0 mi NW 8.1 mph - N/A   Clear
8:35 AM 37.4 °F 30.8 °F 32.0 °F 81% 30.21 in 10.0 mi NNW 9.2 mph - N/A   Clear
8:55 AM 37.4 °F 29.8 °F 32.0 °F 81% 30.21 in 10.0 mi NNW 11.5 mph 18.4 mph N/A   Clear
9:15 AM 41.0 °F 35.8 °F 32.0 °F 70% 30.22 in 10.0 mi NNW 8.1 mph - N/A   Clear
9:35 AM 41.0 °F 36.4 °F 32.0 °F 70% 30.21 in 10.0 mi NW 6.9 mph - N/A   Clear
9:55 AM 41.0 °F 35.2 °F 32.0 °F 70% 30.21 in 10.0 mi NNW 9.2 mph - N/A   Clear
10:15 AM 42.8 °F 37.5 °F 32.0 °F 66% 30.21 in 10.0 mi NNW 9.2 mph - N/A   Clear
10:35 AM 42.8 °F 37.0 °F 32.0 °F 66% 30.21 in 10.0 mi WNW 10.4 mph - N/A   Clear
10:55 AM 42.8 °F 38.6 °F 32.0 °F 66% 30.21 in 10.0 mi WNW 6.9 mph - N/A   Scattered Clouds
11:15 AM 42.8 °F 39.3 °F 32.0 °F 66% 30.22 in 10.0 mi NNW 5.8 mph 16.1 mph N/A   Scattered Clouds
11:35 AM 44.6 °F 38.4 °F 32.0 °F 61% 30.21 in 10.0 mi WNW 12.7 mph 17.3 mph N/A   Clear
11:55 AM 46.4 °F 40.7 °F 32.0 °F 57% 30.21 in 10.0 mi WNW 12.7 mph 18.4 mph N/A   Clear
12:15 PM 46.4 °F 41.9 °F 32.0 °F 57% 30.20 in 10.0 mi NNW 9.2 mph - N/A   Clear
12:55 PM 48.2 °F - 33.8 °F 58% 30.19 in 10.0 mi West 16.1 mph - N/A   Clear
1:15 PM 48.2 °F - 32.0 °F 54% 30.19 in 10.0 mi NW 9.2 mph 20.7 mph N/A   Clear
1:35 PM 48.2 °F - 33.8 °F 58% 30.18 in 10.0 mi West 13.8 mph 17.3 mph N/A   Scattered Clouds
1:55 PM 51.8 °F - 33.8 °F 50% 30.17 in 10.0 mi West 13.8 mph 18.4 mph N/A   Scattered Clouds
2:15 PM 51.8 °F - 33.8 °F 50% 30.17 in 10.0 mi WNW 12.7 mph 18.4 mph N/A   Clear
2:35 PM 51.8 °F - 33.8 °F 50% 30.16 in 10.0 mi WNW 10.4 mph 18.4 mph N/A   Clear
2:55 PM 51.8 °F - 33.8 °F 50% 30.16 in 10.0 mi WNW 11.5 mph - N/A   Scattered Clouds
3:15 PM 51.8 °F - 33.8 °F 50% 30.16 in 10.0 mi West 13.8 mph 18.4 mph N/A   Scattered Clouds
3:35 PM 51.8 °F - 32.0 °F 47% 30.16 in 10.0 mi WNW 11.5 mph - N/A   Clear
3:55 PM 51.8 °F - 33.8 °F 50% 30.16 in 10.0 mi NW 11.5 mph 17.3 mph N/A   Clear
4:15 PM 51.8 °F - 33.8 °F 50% 30.16 in 10.0 mi WNW 11.5 mph 16.1 mph N/A   Scattered Clouds
4:35 PM 51.8 °F - 33.8 °F 50% 30.16 in 10.0 mi NW 10.4 mph - N/A   Scattered Clouds
4:55 PM 51.8 °F - 33.8 °F 50% 30.16 in 10.0 mi North 11.5 mph - N/A   Scattered Clouds
5:15 PM 48.2 °F - 32.0 °F 54% 30.16 in 10.0 mi NNW 10.4 mph 18.4 mph N/A   Clear
5:35 PM 48.2 °F - 33.8 °F 58% 30.16 in 10.0 mi NNW 10.4 mph - N/A   Clear
6:15 PM 44.6 °F 39.7 °F 32.0 °F 61% 30.17 in 10.0 mi North 9.2 mph - N/A   Clear
6:35 PM 44.6 °F 39.2 °F 32.0 °F 61% 30.18 in 10.0 mi North 10.4 mph - N/A   Clear
6:55 PM 42.8 °F 36.6 °F 32.0 °F 66% 30.18 in 10.0 mi North 11.5 mph - N/A   Clear
7:15 PM 41.0 °F 34.3 °F 32.0 °F 70% 30.19 in 10.0 mi North 11.5 mph - N/A   Clear
7:35 PM 41.0 °F 34.7 °F 32.0 °F 70% 30.19 in 10.0 mi North 10.4 mph 18.4 mph N/A   Clear
7:55 PM 41.0 °F 35.8 °F 32.0 °F 70% 30.19 in 10.0 mi North 8.1 mph - N/A   Clear
8:15 PM 39.2 °F 32.0 °F 32.0 °F 75% 30.20 in 10.0 mi North 11.5 mph - N/A   Clear
8:35 PM 37.4 °F 31.4 °F 32.0 °F 81% 30.20 in 10.0 mi North 8.1 mph - N/A   Clear
8:55 PM 37.4 °F 34.9 °F 32.0 °F 81% 30.21 in 10.0 mi North 3.5 mph - N/A   Clear
9:15 PM 37.4 °F 33.8 °F 32.0 °F 81% 30.21 in 10.0 mi North 4.6 mph - N/A   Clear
9:35 PM 35.6 °F - 32.0 °F 87% 30.22 in 10.0 mi Calm Calm - N/A   Clear
9:55 PM 35.6 °F 32.8 °F 32.0 °F 87% 30.22 in 10.0 mi North 3.5 mph - N/A   Clear
10:15 PM 35.6 °F - 32.0 °F 87% 30.22 in 10.0 mi Calm Calm - N/A   Mostly Cloudy
10:35 PM 37.4 °F 32.8 °F 32.0 °F 81% 30.22 in 10.0 mi NNW 5.8 mph - N/A   Overcast
10:55 PM 37.4 °F 32.8 °F 32.0 °F 81% 30.21 in 10.0 mi North 5.8 mph - N/A   Overcast
11:15 PM 37.4 °F 32.1 °F 32.0 °F 81% 30.21 in 10.0 mi NNW 6.9 mph - N/A   Overcast
11:35 PM 37.4 °F 33.8 °F 32.0 °F 81% 30.21 in 10.0 mi NNW 4.6 mph - N/A   Overcast
11:55 PM 37.4 °F - 32.0 °F 81% 30.21 in 10.0 mi Calm Calm - N/A   Overcast